カタログに戻る

THOR AGENA D R/B

運用中LEO
NORAD 2825·ROCKET BODY·🇺🇸 United States

打ち上げ May 31, 1967 から Vandenberg Space Force Base

Loading…

次のパス (今後24時間)

TLE

最新Source: Space-Track

元期: Sep 14, 2026, 23:08 UTC

1 02825U 67053B   26257.96422643  .00000003  00000-0  39576-4 0  9993
2 02825  69.9694 240.7978 0005119  35.5330 324.6116 13.97742515104646

AllMySatでTHOR AGENA D R/Bをリアルタイム追跡

Download on the App Store